星链-32391 (STARLINK-32391)

导读

STARLINK-32391是美国SpaceX公司星链星座中的一颗低轨互联网卫星,于2024年11月7日发射入轨。星链是全球规模最大的低轨卫星星座,旨在为全球提供覆盖偏远地区、具备价格竞争力的卫星互联网服务。该卫星运行在近地轨道,属于星链第二代组网卫星,延续了星链星座标准化设计,配备霍尔推进器用于轨道调整和碰撞规避,设计寿命5年以上,将为全球用户提供宽带互联网接入服务。

基本信息
目录编号:
61855
目录名称:
STARLINK-32391
国际标识:
2024-202L
轨道中心:
EARTH
卫星名称:
星链-32391
卫星全名:
星链-32391 (STARLINK-32391)
卫星状态:
在轨 (已飞行673 天)
发射日期:
2024-11-07 UTC
国别 :
美国 (US)
星等 :
--
该卫星已列入 空间交会检测服务 Space Conjunction Data Service (SCDS) ,当前飞行风险评估等级: 高风险
轨道信息
数据来源 国际轨道数据
星历时间: 2026-09-09T10:59:45+0800
2天前
查看轨道信息
半长轴: 6861.429km
偏心率: 0.000087
轨道倾角: 43.002°
近地点辐角 206.847°
升交点赤经 281.871°
平近点角 153.233°
近地点: 482.695km
远地点: 483.889km
周期: 94.272分钟
每日圈数: 15.27499
详细信息
固有亮度:
5
最大亮度:
2.5
卫星平台:
Starlink V1.0
覆盖范围:
全球
运营商:
太空探索技术公司
运营商所在国:
美国
制造商(研发单位):
太空探索技术公司
制造商所在国:
美国
使用方式:
暂无
卫星简介
Starlink 计划是 SpaceX 推出的全球卫星互联网项目,通过发射低轨道卫星,为全球尤其是偏远地区提供高速、低延迟的互联网服务。自 2019 年起,Starlink 已部署数千颗卫星,旨在缩小全球数字鸿沟,推动互联网普及。该项目还为军事、航空等行业提供通信支持,带来广泛经济效益。
2D轨道图
3D轨道图
轨道高度分析图
轨道倾角分析图
轨道综合分析图
查看轨道综合分析图
交会数据列表
事件ID 空间交会对象 最接近时刻(TCA) 交会距离 交会风险概率(CRP) 交会风险指数(CRI) 操作
CDM_260912-102305-706306-185522
2026-09-12T
10:23:52+0000
0.213 km
中距离
6.429602E-4 高风险 0.91
CDM_260911-152905-867806-185522
2026-09-11T
15:29:48+0000
0.297 km
中距离
4.378874E-4 高风险 0.88
CDM_260911-054005-712206-185521
2026-09-11T
05:40:46+0000
0.353 km
远距离
2.079051E-4 高风险 0.81
CDM_260911-210305-706306-185522
2026-09-11T
21:03:31+0000
0.705 km
远距离
6.141992E-5 中风险 0.71
CDM_260913-165205-847506-185521
2026-09-13T
16:52:53+0000
0.779 km
远距离
4.845805E-5 中风险 0.69
CDM_260912-051905-950106-185523
2026-09-12T
05:19:53+0000
0.770 km
远距离
4.243341E-5 中风险 0.68
CDM_260910-174706-185506-632522
2026-09-10T
17:47:49+0000
0.603 km
远距离
3.980839E-5 中风险 0.67
CDM_260912-015105-614406-185522
2026-09-12T
01:51:01+0000
0.847 km
远距离
2.934231E-5 中风险 0.64
CDM_260911-123405-777806-185522
2026-09-11T
12:34:45+0000
0.786 km
远距离
2.778697E-5 中风险 0.64
CDM_260910-232206-185506-784921
2026-09-10T
23:22:40+0000
0.732 km
远距离
2.3928E-5 中风险 0.63
与全量物体交会距离演化趋势
与全量物体交会风险概率演化趋势